Regional Weather Roundup
Issued by NWS Northern Indiana

Home | Current Version | Previous Version | Graphics & Text | Print | Product List | Glossary On
Versions: 1 2 3 4 5 6 7 8 9 10 11 12 13 14 15 16 17 18 19 20 21 22 23 24 25 26 27 28 29 30 31 32 33 34 35 36 37 38 39 40 41 42 43 44 45 46 47 48 49 50
000
ASUS43 KIWX 180910
RWRIWX

KIWX WEATHER ROUNDUP
NATIONAL WEATHER SERVICE NORTHERN INDIANA
400 AM EST THU DEC 18 2014

NOTE: "FAIR" INDICATES FEW OR NO CLOUDS BELOW 12,000 FEET WITH NO
SIGNIFICANT WEATHER AND/OR OBSTRUCTIONS TO VISIBILITY.

* THESE STATIONS ARE NOT UNDER NWS QUALITY CONTROL. THEY ALSO MAY NOT
  REPORT WEATHER SUCH AS PRECIPITATION OR FOG.

INZ001>027-181000-
NORTHERN INDIANA

CITY           SKY/WX    TMP DP  RH WIND       PRES   REMARKS
GARY*          CLOUDY    27  18  69 W3        30.29F
VALPARAISO     CLOUDY    25  18  74 SW6       30.28S WCI  18
MICHIGAN CITY* CLOUDY    28  19  69 NW3       30.27F
LAPORTE*       CLOUDY    28  22  79 W3        30.26F
KNOX*          CLOUDY    26  20  77 W5        30.26F WCI  20
SOUTH BEND     CLOUDY    28  21  75 NW7       30.26S WCI  21
GOSHEN         CLOUDY    27  21  78 W8        30.25R WCI  19
MONTICELLO*    CLOUDY    25  18  76 NW3       30.29R
LOGANSPORT*    CLOUDY    27  19  74 W5        30.29S WCI  21
ROCHESTER*     CLOUDY    28  23  80 W3        30.27F
WARSAW*        CLOUDY    27  21  80 W6        30.26S WCI  20
ANGOLA*        CLOUDY    27  21  80 NW5       30.21F WCI  21
FORT WAYNE     CLOUDY    27  21  78 W9        30.26S WCI  18
HUNTINGTON*    CLOUDY    26  21  81 W3        30.26F
PERU/GRISSOM   CLOUDY    25  24  96 W8        30.28R WCI  16
MARION*        CLOUDY    25  22  87 W6        30.27F WCI  18

$$
INZ028>050-181000-
CENTRAL INDIANA

CITY           SKY/WX    TMP DP  RH WIND       PRES   REMARKS
LAFAYETTE      CLOUDY    24  18  77 CALM      30.28F
KOKOMO*        CLOUDY    27  18  69 W6        30.28S WCI  20
MUNCIE*        CLOUDY    25  19  78 W5        30.27S WCI  19
INDIANAPOLIS   CLOUDY    24  18  77 NE3       30.27F

$$
MIZ043>046-050>051-056>058-064>065-071>073-077>080-181000-
SOUTHWEST LOWER MICHIGAN

CITY           SKY/WX    TMP DP  RH WIND       PRES   REMARKS
BATTLE CREEK   CLOUDY    30  22  72 W8        30.21S WCI  22
BENTON HARBOR  CLOUDY    28  22  78 W6        30.26S WCI  22
COLDWATER*     CLOUDY    28  22  78 W8        30.21F WCI  20
HILLSDALE*     CLOUDY    28  24  83 W9        30.19S WCI  19
HOLLAND        CLOUDY    33  23  66 NW6       30.23S WCI  28
GRAND RAPIDS   CLOUDY    30  24  78 W9        30.21F WCI  22
KALAMAZOO      CLOUDY    29  22  75 W7        30.22F WCI  22
STURGIS*       CLOUDY    27  21  80 W5        30.22S WCI  21
THREE RIVERS*  CLOUDY    29  22  76 W6        30.24S WCI  23

$$
OHZ001>008-015>018-024>025-181000-
NORTHWEST OHIO

CITY           SKY/WX    TMP DP  RH WIND       PRES   REMARKS
WAUSEON*       CLOUDY    28  23  80 W7        30.22S WCI  21
FINDLAY        CLOUDY    29  21  72 W10       30.23R WCI  20
TOLEDO EXPRESS CLOUDY    29  21  72 W8        30.22S WCI  21
TOLEDO METCALF CLOUDY    30  20  66 W12       30.23S WCI  20
LIMA           CLOUDY    30  20  66 W10       30.24R WCI  21

$$
AND FOR LAKE MICHIGAN COASTAL AND OPEN LAKE BUOY OBSERVATIONS

STATION/POSITION TEMP    WIND        PRES    VSBY  WAVE
                 AIR SEA DIR/SP/G                  HT/PER
                 (F)     (DEG/KT/KT) (MB)    (MI)  (FT/S)
CALUMET HARBOR    25     290/  3/  5 1024.1R
SAINT JOSEPH      30     260/  6/  8 1024.7F

$$
&&



USA.gov is the U.S. government's official web portal to all federal, state and local government web resources and services.